EZY31YR LGAV-EGKK

Flight info

Callsign EZY31YR
Flight time N/A
Altitude 34000
Route KOR UL53 OLGAT DCT AIOSA DCT IXONA DCT ROTAR DCT BORMI DCT RESIA DCT ELMUR DCT RIPUS DCT DITON DCT HOC DCT LUL DCT RLP DCT ROTSI DCT KOTUN DCT NINAL DCT KESAX DCT KUNAV
Aircraft A320/M-SDE2E3FGHIRWXY/LB1

Departure

Time N/A
Airport Athens Eleftherios Venizelos International Airport (LGAV)

Arrival

Time 2026-05-04 20:41
Airport London Gatwick Airport (EGKK)
Time Latitude Longitude Altitude Speed Heading
2026-05-04 17:29 38.49586 21.89617 34141 ft 385 kts 307°
2026-05-04 17:31 38.57132 21.75471 34128 ft 385 kts 308°
2026-05-04 17:32 38.64632 21.61354 34136 ft 383 kts 308°
2026-05-04 17:33 38.70615 21.50051 34138 ft 384 kts 308°
2026-05-04 17:34 38.76589 21.38723 34137 ft 384 kts 308°
2026-05-04 17:35 38.84047 21.24533 34136 ft 384 kts 307°
2026-05-04 17:36 38.87025 21.18844 34140 ft 384 kts 307°
2026-05-04 17:36 38.89983 21.13194 34108 ft 384 kts 307°
2026-05-04 17:37 38.92954 21.07509 34129 ft 383 kts 307°
2026-05-04 17:37 38.95914 21.01821 34130 ft 383 kts 307°
2026-05-04 17:38 38.98871 20.96131 34156 ft 383 kts 307°
2026-05-04 17:38 39.01828 20.90436 34150 ft 383 kts 307°
2026-05-04 17:39 39.06254 20.81883 34145 ft 383 kts 307°
2026-05-04 17:39 39.09204 20.76183 34113 ft 383 kts 307°
2026-05-04 17:40 39.12154 20.70466 34116 ft 384 kts 307°
2026-05-04 17:40 39.15099 20.64738 34124 ft 384 kts 307°
2026-05-04 17:41 39.18052 20.59000 34113 ft 384 kts 307°
2026-05-04 17:41 39.21003 20.53248 34128 ft 385 kts 307°
2026-05-04 17:42 39.23944 20.47486 34112 ft 384 kts 307°
2026-05-04 17:42 39.26890 20.41726 34101 ft 385 kts 306°
2026-05-04 17:43 39.29847 20.35946 34103 ft 386 kts 306°
2026-05-04 17:43 39.32798 20.30147 34127 ft 387 kts 307°
2026-05-04 17:44 39.35758 20.24335 34125 ft 387 kts 307°
2026-05-04 17:44 39.38692 20.18557 34113 ft 387 kts 307°
2026-05-04 17:45 39.41640 20.12732 34088 ft 387 kts 306°
2026-05-04 17:45 39.44666 20.06992 34092 ft 385 kts 312°
2026-05-04 17:46 39.48385 20.02024 34095 ft 384 kts 315°
2026-05-04 17:46 39.52133 19.97084 34096 ft 384 kts 315°
2026-05-04 17:47 39.55879 19.92135 34095 ft 385 kts 315°
2026-05-04 17:47 39.59624 19.87179 34098 ft 385 kts 315°
2026-05-04 17:48 39.62738 19.83052 34114 ft 385 kts 316°
2026-05-04 17:48 39.66479 19.78077 34090 ft 385 kts 315°
2026-05-04 17:49 39.70223 19.73094 34091 ft 386 kts 315°
2026-05-04 17:49 39.73972 19.68104 34098 ft 386 kts 315°
2026-05-04 17:50 39.77722 19.63103 34106 ft 386 kts 315°
2026-05-04 17:50 39.81473 19.58091 34109 ft 387 kts 315°
2026-05-04 17:51 39.85219 19.53073 34116 ft 386 kts 315°
2026-05-04 17:51 39.88963 19.48055 34119 ft 386 kts 315°
2026-05-04 17:52 39.92706 19.43025 34104 ft 387 kts 315°
2026-05-04 17:52 39.96449 19.37993 34109 ft 387 kts 315°
2026-05-04 17:53 40.00198 19.32942 34113 ft 388 kts 315°
2026-05-04 17:53 40.03946 19.27881 34116 ft 388 kts 315°
2026-05-04 17:54 40.07695 19.22814 34122 ft 388 kts 314°
2026-05-04 17:54 40.11437 19.17746 34127 ft 388 kts 314°
2026-05-04 17:55 40.15180 19.12667 34128 ft 388 kts 314°
2026-05-04 17:55 40.18923 19.07579 34109 ft 389 kts 314°
2026-05-04 17:56 40.22670 19.02473 34112 ft 389 kts 314°
2026-05-04 17:56 40.26665 18.97781 34109 ft 389 kts 322°
2026-05-04 17:57 40.30961 18.93469 34115 ft 389 kts 322°
2026-05-04 17:57 40.35257 18.89139 34115 ft 389 kts 322°
2026-05-04 17:58 40.39544 18.84791 34113 ft 389 kts 322°
2026-05-04 17:58 40.43828 18.80441 34116 ft 389 kts 322°
2026-05-04 17:59 40.48120 18.76095 34094 ft 390 kts 322°
2026-05-04 18:00 40.54569 18.69536 34092 ft 391 kts 322°
2026-05-04 18:00 40.58880 18.65155 34099 ft 392 kts 322°
2026-05-04 18:01 40.63192 18.60751 34097 ft 392 kts 322°
2026-05-04 18:01 40.67504 18.56342 34100 ft 393 kts 322°
2026-05-04 18:02 40.73972 18.49717 34112 ft 392 kts 322°
2026-05-04 18:02 40.78281 18.45295 34115 ft 393 kts 322°
2026-05-04 18:03 40.82586 18.40868 34099 ft 393 kts 322°
2026-05-04 18:03 40.86896 18.36423 34101 ft 393 kts 322°
2026-05-04 18:04 40.91207 18.31974 34101 ft 394 kts 322°
2026-05-04 18:05 40.97682 18.25274 34105 ft 394 kts 321°
2026-05-04 18:05 41.02004 18.20798 34108 ft 394 kts 321°
2026-05-04 18:06 41.08481 18.14075 34108 ft 394 kts 321°
2026-05-04 18:06 41.12800 18.09581 34110 ft 395 kts 321°
2026-05-04 18:07 41.17119 18.05079 34112 ft 395 kts 321°
2026-05-04 18:07 41.21445 18.00557 34114 ft 396 kts 321°
2026-05-04 18:08 41.25773 17.96027 34114 ft 396 kts 321°
2026-05-04 18:08 41.30074 17.91524 34116 ft 396 kts 321°
2026-05-04 18:09 41.38726 17.82434 34113 ft 396 kts 321°
2026-05-04 18:10 41.43048 17.77877 34115 ft 397 kts 321°
2026-05-04 18:10 41.47374 17.73309 34099 ft 397 kts 321°
2026-05-04 18:11 41.51706 17.68735 34102 ft 397 kts 321°
2026-05-04 18:11 41.56038 17.64145 34104 ft 398 kts 321°
2026-05-04 18:12 41.60373 17.59550 34101 ft 398 kts 321°
2026-05-04 18:12 41.64704 17.54939 34103 ft 398 kts 321°
2026-05-04 18:13 41.69038 17.50320 34112 ft 399 kts 321°
2026-05-04 18:14 41.75550 17.43377 34109 ft 399 kts 321°
2026-05-04 18:14 41.79890 17.38736 34098 ft 399 kts 321°
2026-05-04 18:15 41.88552 17.29441 34105 ft 400 kts 321°
2026-05-04 18:16 41.92896 17.24763 34109 ft 401 kts 320°
2026-05-04 18:16 41.97128 17.19892 34107 ft 401 kts 318°
2026-05-04 18:17 42.03348 17.12370 34110 ft 401 kts 317°
2026-05-04 18:18 42.09601 17.04886 34096 ft 401 kts 318°
2026-05-04 18:18 42.13783 16.99907 34094 ft 402 kts 318°
2026-05-04 18:19 42.20057 16.92398 34097 ft 403 kts 317°
2026-05-04 18:19 42.24249 16.87371 34094 ft 403 kts 317°
2026-05-04 18:20 42.28444 16.82331 34098 ft 404 kts 317°
2026-05-04 18:20 42.32641 16.77271 34102 ft 405 kts 317°
2026-05-04 18:21 42.36839 16.72195 34102 ft 405 kts 317°
2026-05-04 18:21 42.41027 16.67112 34099 ft 405 kts 317°
2026-05-04 18:22 42.45225 16.62020 34090 ft 406 kts 317°
2026-05-04 18:22 42.49428 16.56923 34090 ft 406 kts 317°
2026-05-04 18:23 42.53644 16.51798 34093 ft 407 kts 317°
2026-05-04 18:23 42.57862 16.46666 34095 ft 407 kts 317°
2026-05-04 18:24 42.62073 16.41518 34098 ft 407 kts 317°
2026-05-04 18:24 42.66258 16.36398 34104 ft 408 kts 317°
2026-05-04 18:25 42.70472 16.31233 34095 ft 408 kts 317°
2026-05-04 18:25 42.74684 16.26064 34102 ft 408 kts 317°
2026-05-04 18:26 42.78893 16.20885 34107 ft 408 kts 317°
2026-05-04 18:26 42.83100 16.15701 34101 ft 408 kts 317°
2026-05-04 18:27 42.87300 16.10511 34106 ft 408 kts 316°
2026-05-04 18:27 42.91503 16.05311 34096 ft 408 kts 317°
2026-05-04 18:28 42.95712 16.00098 34093 ft 409 kts 317°
2026-05-04 18:28 42.99927 15.94870 34098 ft 409 kts 316°
2026-05-04 18:29 43.04128 15.89634 34101 ft 409 kts 316°
2026-05-04 18:29 43.08325 15.84396 34104 ft 408 kts 316°
2026-05-04 18:30 43.14620 15.76528 34104 ft 409 kts 316°
2026-05-04 18:31 43.18823 15.71267 34098 ft 410 kts 316°
2026-05-04 18:31 43.23024 15.65980 34095 ft 410 kts 316°
2026-05-04 18:32 43.27234 15.60686 34098 ft 410 kts 316°
2026-05-04 18:32 43.31436 15.55393 34108 ft 410 kts 315°
2026-05-04 18:33 43.35600 15.50131 34117 ft 409 kts 315°
2026-05-04 18:33 43.39792 15.44824 34109 ft 410 kts 315°
2026-05-04 18:34 43.43986 15.39506 34100 ft 411 kts 315°
2026-05-04 18:34 43.48188 15.34157 34099 ft 411 kts 315°
2026-05-04 18:35 43.52389 15.28813 34104 ft 411 kts 315°
2026-05-04 18:35 43.56590 15.23464 34115 ft 411 kts 315°
2026-05-04 18:36 43.60778 15.18118 34119 ft 411 kts 315°
2026-05-04 18:36 43.64264 15.13658 34105 ft 411 kts 315°
2026-05-04 18:37 43.68462 15.08273 34103 ft 412 kts 315°
2026-05-04 18:37 43.72660 15.02872 34097 ft 413 kts 315°
2026-05-04 18:38 43.76860 14.97460 34102 ft 413 kts 315°
2026-05-04 18:38 43.81061 14.92039 34104 ft 413 kts 315°
2026-05-04 18:39 43.85255 14.86616 34114 ft 412 kts 315°
2026-05-04 18:39 43.89439 14.81195 34121 ft 411 kts 315°
2026-05-04 18:40 43.93620 14.75779 34119 ft 411 kts 315°
2026-05-04 18:40 43.97788 14.70357 34119 ft 411 kts 315°
2026-05-04 18:41 44.01951 14.64923 34114 ft 410 kts 315°
2026-05-04 18:41 44.06107 14.59489 34120 ft 411 kts 315°
2026-05-04 18:42 44.10274 14.54030 34094 ft 412 kts 314°
2026-05-04 18:42 44.14451 14.48547 34089 ft 413 kts 314°
2026-05-04 18:43 44.18640 14.43053 34089 ft 414 kts 314°
2026-05-04 18:43 44.22803 14.37575 34088 ft 414 kts 314°
2026-05-04 18:44 44.26989 14.32049 34094 ft 415 kts 314°
2026-05-04 18:44 44.31175 14.26512 34103 ft 415 kts 314°
2026-05-04 18:45 44.35357 14.20960 34101 ft 415 kts 314°
2026-05-04 18:45 44.39537 14.15404 34101 ft 415 kts 314°
2026-05-04 18:46 44.43718 14.09841 34098 ft 415 kts 314°
2026-05-04 18:46 44.47903 14.04275 34094 ft 415 kts 314°
2026-05-04 18:47 44.52077 13.98701 34098 ft 414 kts 314°
2026-05-04 18:47 44.56248 13.93121 34101 ft 415 kts 314°
2026-05-04 18:48 44.60412 13.87527 34096 ft 415 kts 314°
2026-05-04 18:48 44.64581 13.81924 34094 ft 415 kts 314°
2026-05-04 18:49 44.68749 13.76315 34093 ft 415 kts 314°
2026-05-04 18:49 44.72908 13.70694 34091 ft 415 kts 314°
2026-05-04 18:50 44.77064 13.65068 34097 ft 415 kts 314°
2026-05-04 18:50 44.81218 13.59434 34089 ft 415 kts 314°
2026-05-04 18:51 44.85379 13.53791 34088 ft 415 kts 314°
2026-05-04 18:51 44.89591 13.48207 34082 ft 416 kts 315°
2026-05-04 18:52 44.93834 13.42673 34076 ft 416 kts 314°
2026-05-04 18:52 44.98068 13.37119 34074 ft 415 kts 314°
2026-05-04 18:53 45.02287 13.31538 34081 ft 415 kts 314°
2026-05-04 18:53 45.06500 13.25941 34073 ft 416 kts 314°
2026-05-04 18:54 45.10709 13.20338 34064 ft 416 kts 314°
2026-05-04 18:54 45.14928 13.14735 34072 ft 416 kts 314°
2026-05-04 18:55 45.19151 13.09120 34063 ft 416 kts 314°
2026-05-04 18:55 45.25410 13.00667 34060 ft 415 kts 310°
2026-05-04 18:56 45.28709 12.94020 34054 ft 412 kts 299°
2026-05-04 18:56 45.31708 12.87092 34053 ft 412 kts 300°
2026-05-04 18:57 45.34720 12.80156 34059 ft 412 kts 299°
2026-05-04 18:57 45.37734 12.73219 34053 ft 412 kts 299°
2026-05-04 18:58 45.40745 12.66272 34051 ft 413 kts 299°
2026-05-04 18:58 45.43750 12.59310 34050 ft 413 kts 299°
2026-05-04 18:59 45.46741 12.52342 34058 ft 413 kts 299°
2026-05-04 18:59 45.49725 12.45375 34047 ft 413 kts 298°
2026-05-04 19:00 45.52721 12.38378 34043 ft 414 kts 298°
2026-05-04 19:00 45.55716 12.31374 34054 ft 414 kts 298°
2026-05-04 19:01 45.58702 12.24345 34057 ft 414 kts 298°
2026-05-04 19:01 45.61686 12.17304 34082 ft 414 kts 298°
2026-05-04 19:02 45.64675 12.10249 34076 ft 415 kts 298°
2026-05-04 19:02 45.67661 12.03196 34077 ft 416 kts 298°
2026-05-04 19:03 45.70658 11.96097 34093 ft 416 kts 298°
2026-05-04 19:03 45.73637 11.89000 34098 ft 416 kts 298°
2026-05-04 19:04 45.76619 11.81897 34116 ft 416 kts 298°
2026-05-04 19:04 45.79604 11.74775 34111 ft 417 kts 297°
2026-05-04 19:05 45.82574 11.67641 34113 ft 416 kts 297°
2026-05-04 19:05 45.85545 11.60504 34115 ft 417 kts 297°
2026-05-04 19:06 45.88499 11.53395 34131 ft 418 kts 297°
2026-05-04 19:06 45.91468 11.46220 34133 ft 418 kts 297°
2026-05-04 19:07 45.94427 11.39042 34147 ft 418 kts 297°
2026-05-04 19:07 45.97385 11.31855 34151 ft 418 kts 297°
2026-05-04 19:08 46.00343 11.24655 34171 ft 418 kts 297°
2026-05-04 19:08 46.03297 11.17450 34180 ft 418 kts 297°
2026-05-04 19:09 46.06222 11.10234 34196 ft 419 kts 297°
2026-05-04 19:09 46.09121 11.02961 34184 ft 419 kts 296°
2026-05-04 19:10 46.12015 10.95681 34186 ft 419 kts 296°
2026-05-04 19:10 46.14917 10.88390 34180 ft 419 kts 297°
2026-05-04 19:11 46.17821 10.81094 34181 ft 419 kts 296°
2026-05-04 19:11 46.20721 10.73784 34181 ft 420 kts 296°
2026-05-04 19:12 46.25051 10.62828 34177 ft 420 kts 296°
2026-05-04 19:13 46.27936 10.55478 34163 ft 420 kts 296°
2026-05-04 19:13 46.30797 10.48177 34163 ft 420 kts 296°
2026-05-04 19:14 46.33670 10.40826 34161 ft 420 kts 296°
2026-05-04 19:14 46.36542 10.33470 34160 ft 420 kts 296°
2026-05-04 19:15 46.39406 10.26116 34138 ft 419 kts 296°
2026-05-04 19:15 46.42266 10.18766 34137 ft 419 kts 296°
2026-05-04 19:16 46.45119 10.11403 34139 ft 419 kts 296°
2026-05-04 19:16 46.48077 10.04119 34148 ft 420 kts 303°
2026-05-04 19:17 46.51892 9.97646 34148 ft 422 kts 308°
2026-05-04 19:17 46.55786 9.91259 34146 ft 422 kts 308°
2026-05-04 19:18 46.59677 9.84862 34134 ft 422 kts 308°
2026-05-04 19:18 46.63560 9.78446 34129 ft 422 kts 308°
2026-05-04 19:19 46.67437 9.72024 34110 ft 423 kts 307°
2026-05-04 19:19 46.71315 9.65591 34092 ft 423 kts 307°
2026-05-04 19:20 46.75181 9.59143 34057 ft 422 kts 307°
2026-05-04 19:20 46.79046 9.52678 34049 ft 422 kts 307°
2026-05-04 19:21 46.82883 9.46256 34035 ft 423 kts 307°
2026-05-04 19:21 46.86758 9.39764 34036 ft 424 kts 307°
2026-05-04 19:22 46.90630 9.33274 34028 ft 423 kts 307°
2026-05-04 19:22 46.94482 9.26780 34013 ft 423 kts 307°
2026-05-04 19:23 46.98336 9.20267 34016 ft 423 kts 307°
2026-05-04 19:23 47.02192 9.13746 34016 ft 423 kts 307°
2026-05-04 19:24 47.06044 9.07210 34009 ft 424 kts 307°
2026-05-04 19:24 47.09887 9.00655 34017 ft 424 kts 306°
2026-05-04 19:25 47.13107 8.95150 34004 ft 424 kts 306°
2026-05-04 19:25 47.16342 8.88045 33995 ft 415 kts 290°
2026-05-04 19:26 47.18401 8.80165 33989 ft 413 kts 287°
2026-05-04 19:26 47.20403 8.72306 33988 ft 414 kts 287°
2026-05-04 19:27 47.22407 8.64366 34014 ft 414 kts 286°
2026-05-04 19:27 47.24408 8.56438 34018 ft 413 kts 286°
2026-05-04 19:28 47.26413 8.48508 34018 ft 413 kts 286°
2026-05-04 19:28 47.28424 8.40534 34034 ft 412 kts 286°
2026-05-04 19:29 47.30395 8.32655 34026 ft 413 kts 285°
2026-05-04 19:29 47.32381 8.24706 34033 ft 414 kts 285°
2026-05-04 19:30 47.34369 8.16731 34020 ft 415 kts 285°
2026-05-04 19:30 47.36345 8.08740 34011 ft 415 kts 285°
2026-05-04 19:31 47.38319 8.00739 34011 ft 415 kts 285°
2026-05-04 19:31 47.40290 7.92715 34010 ft 416 kts 285°
2026-05-04 19:32 47.42251 7.84684 34007 ft 416 kts 285°
2026-05-04 19:32 47.44209 7.76646 34006 ft 416 kts 285°
2026-05-04 19:33 47.46165 7.68603 34003 ft 416 kts 285°
2026-05-04 19:33 47.47698 7.60424 34002 ft 412 kts 279°
2026-05-04 19:34 47.49072 7.52195 34025 ft 412 kts 279°
2026-05-04 19:34 47.50439 7.43954 34025 ft 413 kts 279°
2026-05-04 19:35 47.52026 7.35783 34022 ft 420 kts 291°
2026-05-04 19:35 47.54794 7.28139 34014 ft 421 kts 293°
2026-05-04 19:36 47.57608 7.20525 34006 ft 422 kts 294°
2026-05-04 19:36 47.60422 7.12890 34032 ft 422 kts 293°
2026-05-04 19:37 47.63223 7.05237 34020 ft 423 kts 293°
2026-05-04 19:37 47.65993 6.97610 34001 ft 423 kts 293°
2026-05-04 19:38 47.68777 6.89920 33999 ft 423 kts 293°
2026-05-04 19:38 47.71565 6.82223 34002 ft 423 kts 293°
2026-05-04 19:39 47.74351 6.74518 34008 ft 423 kts 293°
2026-05-04 19:39 47.77130 6.66802 34011 ft 424 kts 292°
2026-05-04 19:40 47.79906 6.59064 34005 ft 424 kts 292°
2026-05-04 19:40 47.82684 6.51318 34001 ft 424 kts 292°
2026-05-04 19:41 47.85458 6.43556 34006 ft 425 kts 292°
2026-05-04 19:41 47.88226 6.35762 33997 ft 426 kts 292°
2026-05-04 19:42 47.90993 6.27959 34007 ft 426 kts 292°
2026-05-04 19:42 47.93762 6.20137 33998 ft 427 kts 292°
2026-05-04 19:43 47.96528 6.12298 33996 ft 427 kts 292°
2026-05-04 19:43 47.99286 6.04446 33994 ft 427 kts 292°
2026-05-04 19:44 48.02039 5.96588 33991 ft 427 kts 292°
2026-05-04 19:44 48.04791 5.88723 34001 ft 427 kts 292°
2026-05-04 19:45 48.07536 5.80852 33995 ft 427 kts 292°
2026-05-04 19:45 48.10274 5.72969 33996 ft 427 kts 292°
2026-05-04 19:46 48.13007 5.65073 33992 ft 427 kts 292°
2026-05-04 19:46 48.15735 5.57173 33983 ft 427 kts 292°
2026-05-04 19:47 48.18436 5.49319 33997 ft 427 kts 292°
2026-05-04 19:47 48.21147 5.41412 33984 ft 426 kts 292°
2026-05-04 19:48 48.23855 5.33500 33974 ft 426 kts 292°
2026-05-04 19:48 48.26557 5.25583 33964 ft 426 kts 292°
2026-05-04 19:49 48.29251 5.17654 33968 ft 426 kts 292°
2026-05-04 19:49 48.31944 5.09723 33990 ft 426 kts 292°
2026-05-04 19:50 48.34627 5.01788 33986 ft 426 kts 292°
2026-05-04 19:50 48.37299 4.93846 33975 ft 426 kts 292°
2026-05-04 19:51 48.40631 4.86433 33968 ft 432 kts 305°
2026-05-04 19:51 48.44478 4.79474 33951 ft 432 kts 305°
2026-05-04 19:52 48.48331 4.72519 33979 ft 432 kts 305°
2026-05-04 19:52 48.52164 4.65566 33978 ft 430 kts 305°
2026-05-04 19:53 48.55975 4.58622 33976 ft 429 kts 305°
2026-05-04 19:53 48.59772 4.51674 33986 ft 429 kts 304°
2026-05-04 19:54 48.63558 4.44719 33980 ft 428 kts 304°
2026-05-04 19:54 48.67318 4.37814 33981 ft 428 kts 304°
2026-05-04 19:55 48.71098 4.30867 33993 ft 427 kts 304°
2026-05-04 19:55 48.74865 4.23907 33984 ft 427 kts 304°
2026-05-04 19:56 48.78623 4.16950 33980 ft 426 kts 304°
2026-05-04 19:56 48.82374 4.09990 33974 ft 426 kts 304°
2026-05-04 19:57 48.86118 4.03017 33964 ft 426 kts 304°
2026-05-04 19:57 48.89856 3.96036 33959 ft 426 kts 304°
2026-05-04 19:58 48.93596 3.89055 33953 ft 426 kts 304°
2026-05-04 19:58 48.97327 3.82067 33948 ft 425 kts 304°
2026-05-04 19:59 49.01047 3.75060 33946 ft 425 kts 303°
2026-05-04 19:59 49.04760 3.68051 33948 ft 425 kts 303°
2026-05-04 20:00 49.08469 3.61025 33944 ft 425 kts 303°
2026-05-04 20:00 49.12178 3.53998 33946 ft 425 kts 303°
2026-05-04 20:01 49.15875 3.46973 33967 ft 424 kts 303°
2026-05-04 20:01 49.19564 3.39940 33962 ft 424 kts 303°
2026-05-04 20:02 49.23245 3.32906 33956 ft 423 kts 303°
2026-05-04 20:02 49.26917 3.25869 33965 ft 423 kts 303°
2026-05-04 20:03 49.30568 3.18869 33968 ft 422 kts 303°
2026-05-04 20:03 49.34222 3.11848 33966 ft 421 kts 303°
2026-05-04 20:04 49.37861 3.04819 33974 ft 420 kts 303°
2026-05-04 20:04 49.41486 2.97785 33970 ft 420 kts 303°
2026-05-04 20:05 49.45106 2.90747 33966 ft 419 kts 303°
2026-05-04 20:05 49.48721 2.83708 33961 ft 419 kts 303°
2026-05-04 20:06 49.52335 2.76665 33963 ft 420 kts 303°
2026-05-04 20:06 49.55948 2.69597 33960 ft 420 kts 303°
2026-05-04 20:07 49.59557 2.62513 33956 ft 421 kts 303°
2026-05-04 20:07 49.63166 2.55404 33953 ft 421 kts 303°
2026-05-04 20:08 49.66771 2.48289 33964 ft 421 kts 303°
2026-05-04 20:08 49.70378 2.41167 33963 ft 421 kts 303°
2026-05-04 20:09 49.73971 2.34018 33966 ft 421 kts 304°
2026-05-04 20:09 49.76960 2.28059 33969 ft 422 kts 304°
2026-05-04 20:10 49.81155 2.19719 33966 ft 423 kts 304°
2026-05-04 20:10 49.84765 2.12514 33972 ft 424 kts 304°
2026-05-04 20:11 49.88365 2.05295 33977 ft 424 kts 304°
2026-05-04 20:11 49.91965 1.98044 33978 ft 424 kts 304°
2026-05-04 20:12 49.94978 1.91957 33988 ft 433 kts 304°
2026-05-04 20:12 49.99299 1.83233 33993 ft 437 kts 304°
2026-05-04 20:13 50.02389 1.76975 33994 ft 441 kts 304°
2026-05-04 20:13 50.06123 1.69394 33259 ft 442 kts 305°
2026-05-04 20:13 50.08226 1.65867 32442 ft 447 kts 315°
2026-05-04 20:14 50.10569 1.62670 31659 ft 448 kts 316°
2026-05-04 20:14 50.12924 1.59474 30889 ft 449 kts 316°
2026-05-04 20:14 50.15282 1.56282 30135 ft 449 kts 316°
2026-05-04 20:14 50.17639 1.53092 29298 ft 449 kts 316°
2026-05-04 20:15 50.19980 1.49914 28662 ft 445 kts 317°
2026-05-04 20:15 50.22303 1.46751 27977 ft 442 kts 317°
2026-05-04 20:15 50.24629 1.43576 27036 ft 445 kts 317°
2026-05-04 20:15 50.26958 1.40390 26324 ft 443 kts 317°
2026-05-04 20:16 50.29268 1.37221 25702 ft 440 kts 317°
2026-05-04 20:16 50.31561 1.34072 25061 ft 438 kts 317°
2026-05-04 20:16 50.33841 1.30940 24459 ft 434 kts 317°
2026-05-04 20:16 50.36100 1.27834 23852 ft 431 kts 317°
2026-05-04 20:17 50.38347 1.24746 23222 ft 428 kts 317°
2026-05-04 20:17 50.40587 1.21666 22480 ft 427 kts 317°
2026-05-04 20:17 50.42781 1.18648 22311 ft 412 kts 317°
2026-05-04 20:17 50.44906 1.15716 22049 ft 402 kts 317°
2026-05-04 20:18 50.46983 1.12840 21613 ft 396 kts 317°
2026-05-04 20:18 50.49034 1.09994 21188 ft 391 kts 317°
2026-05-04 20:18 50.51056 1.07182 20483 ft 388 kts 316°
2026-05-04 20:18 50.52923 1.04161 19945 ft 380 kts 312°
2026-05-04 20:19 50.54675 1.01199 19526 ft 371 kts 313°
2026-05-04 20:19 50.56451 0.98210 18942 ft 368 kts 313°
2026-05-04 20:19 50.58199 0.95274 18341 ft 367 kts 313°
2026-05-04 20:19 50.59943 0.92342 17862 ft 367 kts 314°
2026-05-04 20:20 50.61642 0.89480 17426 ft 358 kts 314°
2026-05-04 20:20 50.63324 0.86636 17017 ft 352 kts 313°
2026-05-04 20:20 50.64984 0.83818 16608 ft 350 kts 313°
2026-05-04 20:20 50.66635 0.81010 16205 ft 348 kts 313°
2026-05-04 20:21 50.68256 0.78192 15761 ft 347 kts 311°
2026-05-04 20:21 50.69807 0.75275 15366 ft 345 kts 309°
2026-05-04 20:21 50.72780 0.69362 14747 ft 336 kts 308°
2026-05-04 20:22 50.74204 0.66506 14606 ft 327 kts 309°
2026-05-04 20:22 50.75598 0.63725 14363 ft 322 kts 309°
2026-05-04 20:22 50.76974 0.60996 14064 ft 320 kts 309°
2026-05-04 20:22 50.78363 0.58252 13695 ft 320 kts 309°
2026-05-04 20:23 50.79749 0.55517 13347 ft 318 kts 309°
2026-05-04 20:23 50.81124 0.52805 13034 ft 314 kts 309°
2026-05-04 20:23 50.82484 0.50119 12704 ft 312 kts 309°
2026-05-04 20:23 50.83841 0.47442 12345 ft 311 kts 309°
2026-05-04 20:24 50.85180 0.44797 11962 ft 308 kts 309°
2026-05-04 20:24 50.86514 0.42160 11447 ft 306 kts 309°
2026-05-04 20:24 50.87823 0.39571 10853 ft 303 kts 309°
2026-05-04 20:24 50.89131 0.36984 10262 ft 300 kts 308°
2026-05-04 20:25 50.90424 0.34418 9666 ft 296 kts 308°
2026-05-04 20:25 50.91698 0.31888 9027 ft 292 kts 308°
2026-05-04 20:25 50.92956 0.29390 8400 ft 288 kts 309°
2026-05-04 20:25 50.94197 0.26919 7770 ft 284 kts 309°
2026-05-04 20:26 50.95416 0.24481 7193 ft 279 kts 308°
2026-05-04 20:26 50.96600 0.22079 6731 ft 275 kts 308°
2026-05-04 20:26 50.97769 0.19695 6400 ft 272 kts 308°
2026-05-04 20:26 50.98926 0.17334 6015 ft 270 kts 308°
2026-05-04 20:27 51.00074 0.14989 5622 ft 269 kts 308°
2026-05-04 20:27 51.01130 0.12555 5265 ft 266 kts 297°
2026-05-04 20:27 51.01736 0.09848 5138 ft 255 kts 282°
2026-05-04 20:27 51.01916 0.07122 5003 ft 244 kts 275°
2026-05-04 20:28 51.02029 0.04470 4779 ft 238 kts 275°
2026-05-04 20:28 51.02142 0.01852 4436 ft 237 kts 275°
2026-05-04 20:28 51.02255 -0.00750 4046 ft 239 kts 275°
2026-05-04 20:28 51.02366 -0.03352 3926 ft 236 kts 275°
2026-05-04 20:29 51.02476 -0.05936 3826 ft 238 kts 275°
2026-05-04 20:29 51.02588 -0.08545 3725 ft 237 kts 275°
2026-05-04 20:29 51.02697 -0.11121 3629 ft 228 kts 275°
2026-05-04 20:29 51.02801 -0.13580 3548 ft 219 kts 275°
2026-05-04 20:30 51.02901 -0.15940 3467 ft 210 kts 275°
2026-05-04 20:30 51.02996 -0.18214 3390 ft 203 kts 275°
2026-05-04 20:30 51.03087 -0.20430 3313 ft 200 kts 275°
2026-05-04 20:30 51.03178 -0.22621 3237 ft 198 kts 275°
2026-05-04 20:31 51.03268 -0.24806 3155 ft 198 kts 275°
2026-05-04 20:31 51.03358 -0.26991 3063 ft 198 kts 275°
2026-05-04 20:31 51.03446 -0.29174 3003 ft 198 kts 275°
2026-05-04 20:31 51.03534 -0.31358 3009 ft 198 kts 275°
2026-05-04 20:32 51.03622 -0.33541 3011 ft 198 kts 275°
2026-05-04 20:32 51.03710 -0.35729 3003 ft 199 kts 275°
2026-05-04 20:32 51.03798 -0.37918 3000 ft 198 kts 275°
2026-05-04 20:32 51.03887 -0.40098 3005 ft 198 kts 275°
2026-05-04 20:33 51.03975 -0.42279 3011 ft 198 kts 275°
2026-05-04 20:33 51.04062 -0.44466 3009 ft 198 kts 275°
2026-05-04 20:33 51.04147 -0.46648 3001 ft 198 kts 275°
2026-05-04 20:33 51.04231 -0.48829 3008 ft 198 kts 275°
2026-05-04 20:34 51.04318 -0.51014 2999 ft 199 kts 275°
2026-05-04 20:34 51.04652 -0.53100 2992 ft 193 kts 307°
2026-05-04 20:34 51.05655 -0.54399 3004 ft 186 kts 344°
2026-05-04 20:34 51.06899 -0.54540 3014 ft 182 kts
2026-05-04 20:35 51.08163 -0.54300 3004 ft 183 kts 10°
2026-05-04 20:35 51.09337 -0.53621 3009 ft 180 kts 37°
2026-05-04 20:35 51.10150 -0.52119 3001 ft 176 kts 69°
2026-05-04 20:35 51.10441 -0.50324 3008 ft 166 kts 76°
2026-05-04 20:36 51.10692 -0.48551 3003 ft 162 kts 76°
2026-05-04 20:36 51.10938 -0.46807 3012 ft 161 kts 77°
2026-05-04 20:36 51.11181 -0.45082 3037 ft 160 kts 76°
2026-05-04 20:36 51.11423 -0.43362 2994 ft 160 kts 76°
2026-05-04 20:37 51.11664 -0.41640 2849 ft 159 kts 76°
2026-05-04 20:37 51.11904 -0.39936 2662 ft 157 kts 76°
2026-05-04 20:37 51.12141 -0.38242 2460 ft 156 kts 76°
2026-05-04 20:37 51.12377 -0.36555 2251 ft 156 kts 76°
2026-05-04 20:38 51.12612 -0.34875 2040 ft 155 kts 76°
2026-05-04 20:38 51.12841 -0.33232 1837 ft 148 kts 76°
2026-05-04 20:38 51.13059 -0.31668 1648 ft 143 kts 76°
2026-05-04 20:38 51.13274 -0.30134 1444 ft 141 kts 76°
2026-05-04 20:39 51.13490 -0.28608 1213 ft 141 kts 76°
2026-05-04 20:39 51.13700 -0.27086 972 ft 142 kts 75°
2026-05-04 20:39 51.13924 -0.25540 787 ft 145 kts 76°
2026-05-04 20:39 51.14144 -0.23954 622 ft 148 kts 76°
2026-05-04 20:40 51.14361 -0.22329 435 ft 151 kts 76°
2026-05-04 20:40 51.14584 -0.20703 244 ft 149 kts 76°
2026-05-04 20:40 51.14791 -0.19215 210 ft 118 kts 77°
2026-05-04 20:40 51.14930 -0.18207 210 ft 68 kts 77°
2026-05-04 20:41 51.14994 -0.17744 211 ft 30 kts 77°
2026-05-04 20:41 51.15037 -0.17453 218 ft 21 kts 71°
2026-05-04 20:41 51.15101 -0.17250 212 ft 16 kts 51°
2026-05-04 20:41 51.15174 -0.17234 209 ft 10 kts 328°
2026-05-04 20:42 51.15205 -0.17272 208 ft 5 kts 323°
2026-05-04 20:42 51.15223 -0.17294 209 ft 2 kts 323°
2026-05-04 20:42 51.15233 -0.17306 213 ft 0 kts 324°
2026-05-04 20:42 51.15236 -0.17309 212 ft 0 kts 324°
2026-05-04 20:43 51.15252 -0.17327 211 ft 6 kts 326°
2026-05-04 20:43 51.15289 -0.17353 205 ft 6 kts 345°
2026-05-04 20:43 51.15355 -0.17374 205 ft 11 kts 348°
2026-05-04 20:43 51.15437 -0.17403 205 ft 13 kts 347°
2026-05-04 20:44 51.15531 -0.17437 209 ft 15 kts 347°
2026-05-04 20:44 51.15637 -0.17473 207 ft 16 kts 348°
2026-05-04 20:44 51.15718 -0.17501 209 ft 9 kts 348°
2026-05-04 20:44 51.15753 -0.17535 210 ft 5 kts 295°
2026-05-04 20:45 51.15752 -0.17582 205 ft 4 kts 257°
2026-05-04 20:45 51.15741 -0.17663 207 ft 8 kts 258°
2026-05-04 20:45 51.15730 -0.17748 208 ft 7 kts 258°
2026-05-04 20:45 51.15722 -0.17802 205 ft 2 kts 251°
2026-05-04 20:46 51.15710 -0.17813 210 ft 3 kts 201°
2026-05-04 20:46 51.15686 -0.17806 205 ft 3 kts 166°
2026-05-04 20:46 51.15666 -0.17798 210 ft 3 kts 166°
2026-05-04 20:46 51.15656 -0.17794 216 ft 0 kts 167°